Flag for U.S.A. Weather past 2 weeks in Olathe, Kansas, U.S.A.

Now
71 °F

Mostly cloudy.


Feels Like: 68 °F
Forecast: 60 / 78 °F
Wind: 5 mph from East

Location: Johnson County Executive Airport

Current Time: Sep 17, 2014 at 1:34:18 PM

Latest Report: Sep 17, 2014 at 12:53 PM


Visibility: 8 mi

Pressure: 29.90 "Hg

Humidity: 90%

Dew point: 68 °F

Location of OlatheLocation

Historic Weather in Olathe — Graph

°F

Olathe temperature yesterday

Maximum temperature yesterday: 70 °F (at 2:53 PM)
Minimum temperature yesterday: 48 °F (at 5:53 AM)
Average temperature yesterday: 60 °F

Past Weeks' High & Low Weather Summary

 TemperatureHumidityPressure
High91 °F (Sep 4, 2:53 PM)100% (Sep 11, 6:53 AM)30.42 "Hg (Sep 11, 6:53 AM)
Low40 °F (Sep 13, 5:53 AM)46% (Sep 6, 3:53 PM)29.52 "Hg (Sep 10, 12:53 AM)
Average66 °F78%30.05 "Hg
* Reported Sep 2 11:53 AM — Sep 17 11:53 AM, Olathe, Weather by CustomWeather, © 2014

Note: Actual official high and low records may vary slightly from our data, if they occured in-between our weather recording intervals... More about our weather records

Advertising

Olathe weather history for previous 24 hours

 ConditionsComfort  
Time TempWeatherWind HumidityBarometerVisibility
11:53 AM
Sep 17
70 °FMostly cloudy.No wind90%29.91 "Hg7 mi
10:53 AM67 °FFog.3 mph100%29.91 "Hg1 mi
9:58 AM66 °FMostly cloudy.No wind100%29.93 "Hg7 mi
8:53 AM64 °FFog.No wind100%29.91 "Hg6 mi
7:53 AM63 °FFog.3 mph100%29.91 "Hg6 mi
6:53 AM64 °FLow clouds.6 mph100%29.89 "Hg9 mi
6:02 AM64 °FThundershowers. Mostly cloudy.5 mph100%29.90 "Hg7 mi
5:04 AM62 °FStrong thunderstorms. Fog.3 mph96%29.94 "Hg1 mi
3:53 AM62 °FThundershowers. Mostly cloudy.8 mph93%29.93 "Hg8 mi
2:53 AM63 °FOvercast.12 mph87%29.95 "Hg10 mi
1:53 AM62 °FMostly cloudy.9 mph90%29.97 "Hg10 mi
12:53 AM62 °FOvercast.8 mph86%30.00 "Hg10 mi
11:53 PM
Sep 16
62 °FOvercast.5 mph86%30.02 "Hg10 mi
10:53 PM62 °FPassing clouds.5 mph83%30.03 "Hg10 mi
9:53 PM62 °FClear.6 mph83%30.03 "Hg10 mi
8:53 PM64 °FClear.6 mph75%30.03 "Hg10 mi
7:53 PM64 °FSunny.6 mph73%30.02 "Hg10 mi
6:53 PM67 °FSunny.7 mph63%30.03 "Hg10 mi
5:53 PM69 °FSunny.7 mph57%30.03 "Hg10 mi
4:53 PM70 °FSunny.5 mph55%30.06 "Hg10 mi
3:53 PM70 °FSunny.5 mph55%30.08 "Hg10 mi
2:53 PM70 °FSunny.3 mph55%30.10 "Hg10 mi
1:53 PM69 °FSunny.6 mph57%30.13 "Hg10 mi
Weather by CustomWeather, © 2014

See weather overviewHow to use our weather pages